Regional Weather Roundup
Issued by NWS

Home | Current Version | Previous Version | Graphics & Text | Print | Product List | Glossary Off
Versions: 1 2 3 4 5 6 7 8 9 10 11 12 13 14 15 16 17 18 19 20 21 22 23 24 25 26 27 28 29 30 31 32 33 34 35 36 37 38 39 40 41 42 43 44 45 46 47 48 49 50

000
ASUS43 KTOP 211859
RWRKS

WEATHER ROUNDUP FOR KANSAS
NATIONAL WEATHER SERVICE GOODLAND KS
200 PM CDT SUN SEP 21 2014

NOTE:  "FAIR" INDICATES FEW OR NO CLOUDS BELOW 12,000 FEET WITH NO
SIGNIFICANT WEATHER AND/OR OBSTRUCTIONS TO VISIBILITY.

KSZ001>006-013>018-027>032-041>047-212000-
NORTHWEST KANSAS

CITY           SKY/WX    TMP DP  RH WIND       PRES   REMARKS
GOODLAND       MOSUNNY   73  37  27 SE10      30.36F
HAYS           SUNNY     77  45  31 N10       30.28F
HILL CITY      SUNNY     78  37  22 N13       30.30F
RUSSELL        SUNNY     77  43  29 N14       30.26F
$$

KSZ061>065-074>080-084>089-212000-
SOUTHWEST KANSAS

CITY           SKY/WX    TMP DP  RH WIND       PRES   REMARKS
DODGE CITY     SUNNY     81  37  20 NE17      30.27F
ELKHART          N/A     80  48  32 E12         N/A
GARDEN CITY    MOSUNNY   77  39  25 NE14      30.30F
GREAT BEND     MOSUNNY   75  45  33 NE10G16   30.26F
LIBERAL        SUNNY     82  45  26 E12G17    30.27F
$$

KSZ066>073-081>083-090>101-212000-
SOUTHEAST KANSAS

CITY           SKY/WX    TMP DP  RH WIND       PRES   REMARKS
CHANUTE        SUNNY     79  48  33 N8        30.17F
HUTCHINSON     MOSUNNY   77  49  37 NE10      30.24F
NEWTON         SUNNY     75  50  41 N10       30.25F
PARSONS        SUNNY     81  49  32 N13G20    30.18F
WICHITA INTL   MOSUNNY   84  40  21 N15G24    30.20F
WICHITA JABRA  SUNNY     81  44  27 N15G23    30.20F
WICHITA MCCONL SUNNY     82  39  21 N14       30.20F HAZE
WINFIELD       SUNNY     82  45  27 NE14G21   30.19F
$$

KSZ007>012-019>026-033>040-048>060-102>105-212000-
NORTHEAST KANSAS

CITY           SKY/WX    TMP DP  RH WIND       PRES   REMARKS
CONCORDIA      SUNNY     76  42  29 N14G23    30.24F
EMPORIA        SUNNY     77  47  34 NW14      30.19F
LAWRENCE       SUNNY     77  47  34 NW17G24   30.18F
MANHATTAN      SUNNY     79  43  27 NE12G21   30.21F
OLATHE IND     SUNNY     75  47  36 NW17      30.17F
OLATHE EXE     SUNNY     76  47  35 N16G23    30.16F
SALINA         SUNNY     78  44  29 N13       30.24F
TOPEKA BILLARD SUNNY     78  46  32 N15G25    30.19F
TOPEKA FORBES  SUNNY     77  44  30 N14G23    30.19F
$$



USA.gov is the U.S. government's official web portal to all federal, state and local government web resources and services.